Time,TemperatureF,DewpointF,PressureIn,WindDirection,WindDirectionDegrees,WindSpeedMPH,WindSpeedGustMPH,Humidity,HourlyPrecipIn,Conditions,Clouds,dailyrainin,SoftwareType,DateUTC
2013-03-26 00:00:00,56.2,46.9,30.06,WNW,287,5.0,0.0,71,0.00,,,0.00,WeatherTracker,2013-03-26 04:00:00,
2013-03-26 00:05:00,56.4,47.1,30.06,WNW,297,4.0,0.0,71,0.00,,,0.00,WeatherTracker,2013-03-26 04:05:00,
2013-03-26 00:11:00,56.5,46.8,30.07,WNW,292,4.0,0.0,70,0.00,,,0.00,WeatherTracker,2013-03-26 04:11:00,
2013-03-26 00:16:00,56.6,46.9,30.07,WNW,290,6.0,0.0,70,0.00,,,0.00,WeatherTracker,2013-03-26 04:16:00,
2013-03-26 00:21:00,56.6,46.9,30.07,WNW,297,2.0,0.0,70,0.00,,,0.00,WeatherTracker,2013-03-26 04:21:00,
2013-03-26 00:26:00,56.7,47.0,30.07,NW,309,2.0,0.0,70,0.00,,,0.00,WeatherTracker,2013-03-26 04:26:00,
2013-03-26 00:31:00,56.9,47.6,30.06,NW,304,5.0,0.0,71,0.00,,,0.00,WeatherTracker,2013-03-26 04:31:00,
2013-03-26 00:36:00,57.1,47.8,30.06,NW,306,7.0,0.0,71,0.00,,,0.00,WeatherTracker,2013-03-26 04:36:00,
2013-03-26 00:41:00,57.2,47.5,30.06,NW,326,1.0,0.0,70,0.00,,,0.00,WeatherTracker,2013-03-26 04:41:00,
2013-03-26 00:46:00,57.4,47.7,30.06,NNW,343,1.0,0.0,70,0.00,,,0.00,WeatherTracker,2013-03-26 04:46:00,
2013-03-26 00:51:00,57.4,47.7,30.06,NW,310,5.0,0.0,70,0.00,,,0.00,WeatherTracker,2013-03-26 04:51:00,
2013-03-26 00:56:00,57.4,47.7,30.06,NW,313,3.0,0.0,70,0.00,,,0.00,WeatherTracker,2013-03-26 04:56:00,
2013-03-26 01:01:00,57.5,47.8,30.06,NNW,342,5.0,0.0,70,0.00,,,0.00,WeatherTracker,2013-03-26 05:01:00,
2013-03-26 01:06:00,57.6,47.5,30.06,NW,305,4.0,0.0,69,0.00,,,0.00,WeatherTracker,2013-03-26 05:06:00,
2013-03-26 01:11:00,57.6,47.5,30.06,NW,313,4.0,0.0,69,0.00,,,0.00,WeatherTracker,2013-03-26 05:11:00,
2013-03-26 01:16:00,57.6,47.5,30.06,NW,321,5.0,0.0,69,0.00,,,0.00,WeatherTracker,2013-03-26 05:16:00,
2013-03-26 01:21:00,57.6,46.7,30.06,WNW,285,9.0,0.0,67,0.00,,,0.00,WeatherTracker,2013-03-26 05:21:00,
2013-03-26 01:26:00,57.7,46.8,30.06,WNW,298,4.0,0.0,67,0.00,,,0.00,WeatherTracker,2013-03-26 05:26:00,
2013-03-26 01:31:00,57.7,46.4,30.06,NNW,339,2.0,0.0,66,0.00,,,0.00,WeatherTracker,2013-03-26 05:31:00,
2013-03-26 01:36:00,57.9,46.6,30.06,NW,323,10.0,0.0,66,0.00,,,0.00,WeatherTracker,2013-03-26 05:36:00,
2013-03-26 01:41:00,58.0,46.3,30.05,NW,311,10.0,0.0,65,0.00,,,0.00,WeatherTracker,2013-03-26 05:41:00,
2013-03-26 01:46:00,58.0,46.3,30.06,WNW,299,7.0,0.0,65,0.00,,,0.00,WeatherTracker,2013-03-26 05:46:00,
2013-03-26 01:51:00,58.0,46.3,30.05,WNW,287,2.0,0.0,65,0.00,,,0.00,WeatherTracker,2013-03-26 05:51:00,
2013-03-26 01:56:00,58.0,46.7,30.05,NW,312,2.0,0.0,66,0.00,,,0.00,WeatherTracker,2013-03-26 05:56:00,
2013-03-26 02:01:00,57.9,46.6,30.05,NNW,340,6.0,0.0,66,0.00,,,0.00,WeatherTracker,2013-03-26 06:01:00,
2013-03-26 02:06:00,57.9,47.0,30.05,North,360,5.0,0.0,67,0.00,,,0.00,WeatherTracker,2013-03-26 06:06:00,
2013-03-26 02:12:00,57.9,46.6,30.05,North,360,5.0,0.0,66,0.00,,,0.00,WeatherTracker,2013-03-26 06:12:00,
2013-03-26 02:17:00,57.9,46.6,30.05,NNW,328,2.0,0.0,66,0.00,,,0.00,WeatherTracker,2013-03-26 06:17:00,
2013-03-26 02:22:00,57.8,46.5,30.05,West,265,2.0,0.0,66,0.00,,,0.00,WeatherTracker,2013-03-26 06:22:00,
2013-03-26 02:27:00,57.8,46.5,30.05,NW,324,3.0,0.0,66,0.00,,,0.00,WeatherTracker,2013-03-26 06:27:00,
2013-03-26 02:32:00,57.7,46.0,30.05,NNW,346,4.0,0.0,65,0.00,,,0.00,WeatherTracker,2013-03-26 06:32:00,
2013-03-26 02:37:00,57.8,45.3,30.05,NW,314,7.0,0.0,63,0.00,,,0.00,WeatherTracker,2013-03-26 06:37:00,
2013-03-26 02:42:00,57.9,45.4,30.05,North,355,5.0,0.0,63,0.00,,,0.00,WeatherTracker,2013-03-26 06:42:00,
2013-03-26 02:47:00,58.0,45.1,30.05,NW,317,10.0,0.0,62,0.00,,,0.00,WeatherTracker,2013-03-26 06:47:00,
2013-03-26 02:52:00,58.0,44.6,30.04,North,10,4.0,0.0,61,0.00,,,0.00,WeatherTracker,2013-03-26 06:52:00,
2013-03-26 02:57:00,58.1,44.7,30.04,North,360,6.0,0.0,61,0.00,,,0.00,WeatherTracker,2013-03-26 06:57:00,
2013-03-26 03:02:00,58.3,44.0,30.04,WNW,290,7.0,0.0,59,0.00,,,0.00,WeatherTracker,2013-03-26 07:02:00,
2013-03-26 03:07:00,58.5,43.8,30.04,NNW,332,5.0,0.0,58,0.00,,,0.00,WeatherTracker,2013-03-26 07:07:00,
2013-03-26 03:12:00,58.6,43.9,30.04,NNW,341,12.0,0.0,58,0.00,,,0.00,WeatherTracker,2013-03-26 07:12:00,
2013-03-26 03:17:00,58.6,43.4,30.05,NNW,340,5.0,0.0,57,0.00,,,0.00,WeatherTracker,2013-03-26 07:17:00,
2013-03-26 03:22:00,58.8,42.7,30.04,NW,319,4.0,0.0,55,0.00,,,0.00,WeatherTracker,2013-03-26 07:22:00,
2013-03-26 03:27:00,58.9,42.8,30.05,NNE,17,13.0,0.0,55,0.00,,,0.00,WeatherTracker,2013-03-26 07:27:00,
2013-03-26 09:53:00,55.6,38.3,30.18,NW,326,7.0,0.0,52,0.00,,,0.00,WeatherTracker,2013-03-26 13:53:00,
2013-03-26 09:58:00,55.7,38.8,30.18,NNW,348,3.0,0.0,53,0.00,,,0.00,WeatherTracker,2013-03-26 13:58:00,
2013-03-26 10:03:00,55.8,38.9,30.18,North,355,4.0,0.0,53,0.00,,,0.00,WeatherTracker,2013-03-26 14:03:00,
2013-03-26 10:08:00,55.8,38.9,30.19,North,5,8.0,0.0,53,0.00,,,0.00,WeatherTracker,2013-03-26 14:08:00,
2013-03-26 10:13:00,56.2,40.2,30.19,NNW,339,4.0,0.0,55,0.00,,,0.00,WeatherTracker,2013-03-26 14:13:00,
2013-03-26 10:18:00,56.4,40.0,30.19,NNW,336,9.0,0.0,54,0.00,,,0.00,WeatherTracker,2013-03-26 14:18:00,
2013-03-26 10:23:00,56.4,40.0,30.19,North,355,9.0,0.0,54,0.00,,,0.00,WeatherTracker,2013-03-26 14:23:00,
2013-03-26 10:28:00,56.7,41.2,30.19,NNW,346,7.0,0.0,56,0.00,,,0.00,WeatherTracker,2013-03-26 14:28:00,
2013-03-26 10:33:00,57.0,40.5,30.19,North,360,4.0,0.0,54,0.00,,,0.00,WeatherTracker,2013-03-26 14:33:00,
2013-03-26 10:38:00,57.2,40.7,30.19,NW,306,5.0,0.0,54,0.00,,,0.00,WeatherTracker,2013-03-26 14:38:00,
2013-03-26 10:43:00,56.8,40.3,30.19,West,278,7.0,0.0,54,0.00,,,0.00,WeatherTracker,2013-03-26 14:43:00,
2013-03-26 10:48:00,56.8,40.8,30.19,NNE,19,7.0,0.0,55,0.00,,,0.00,WeatherTracker,2013-03-26 14:48:00,
2013-03-26 10:53:00,56.7,41.2,30.19,North,349,5.0,0.0,56,0.00,,,0.00,WeatherTracker,2013-03-26 14:53:00,
2013-03-26 10:58:00,56.9,41.4,30.19,NNW,345,6.0,0.0,56,0.00,,,0.00,WeatherTracker,2013-03-26 14:58:00,
2013-03-26 11:03:00,56.9,41.8,30.19,North,355,6.0,0.0,57,0.00,,,0.00,WeatherTracker,2013-03-26 15:03:00,
2013-03-26 11:08:00,57.5,41.5,30.19,NNW,341,8.0,0.0,55,0.00,,,0.00,WeatherTracker,2013-03-26 15:08:00,
2013-03-26 11:13:00,58.0,42.9,30.19,NNW,337,7.0,0.0,57,0.00,,,0.00,WeatherTracker,2013-03-26 15:13:00,
2013-03-26 11:18:00,58.0,42.4,30.19,North,355,5.0,0.0,56,0.00,,,0.00,WeatherTracker,2013-03-26 15:18:00,
2013-03-26 11:23:00,57.6,42.5,30.19,NNE,21,12.0,0.0,57,0.00,,,0.00,WeatherTracker,2013-03-26 15:23:00,
2013-03-26 11:29:00,57.8,42.7,30.19,NW,324,4.0,0.0,57,0.00,,,0.00,WeatherTracker,2013-03-26 15:29:00,
2013-03-26 11:34:00,58.2,41.6,30.19,NW,322,9.0,0.0,54,0.00,,,0.00,WeatherTracker,2013-03-26 15:34:00,
2013-03-26 11:39:00,58.5,41.4,30.19,WNW,294,10.0,0.0,53,0.00,,,0.00,WeatherTracker,2013-03-26 15:39:00,
2013-03-26 11:44:00,58.8,41.2,30.19,NW,308,11.0,0.0,52,0.00,,,0.00,WeatherTracker,2013-03-26 15:44:00,
2013-03-26 11:49:00,59.0,40.9,30.20,NW,307,7.0,0.0,51,0.00,,,0.00,WeatherTracker,2013-03-26 15:49:00,
2013-03-26 11:54:00,59.2,41.1,30.20,NNE,24,10.0,0.0,51,0.00,,,0.00,WeatherTracker,2013-03-26 15:54:00,
2013-03-26 11:59:00,59.2,41.1,30.20,WNW,302,11.0,0.0,51,0.00,,,0.00,WeatherTracker,2013-03-26 15:59:00,
2013-03-26 12:04:00,59.4,41.3,30.19,NW,306,13.0,0.0,51,0.00,,,0.00,WeatherTracker,2013-03-26 16:04:00,
2013-03-26 12:09:00,59.7,41.0,30.20,North,355,9.0,0.0,50,0.00,,,0.00,WeatherTracker,2013-03-26 16:09:00,
2013-03-26 12:14:00,59.9,42.2,30.20,West,274,7.0,0.0,52,0.00,,,0.00,WeatherTracker,2013-03-26 16:14:00,
2013-03-26 12:19:00,59.8,40.6,30.20,NNW,338,14.0,0.0,49,0.00,,,0.00,WeatherTracker,2013-03-26 16:19:00,
2013-03-26 12:24:00,59.4,40.8,30.20,North,5,14.0,0.0,50,0.00,,,0.00,WeatherTracker,2013-03-26 16:24:00,
2013-03-26 12:29:00,59.6,39.9,30.21,WNW,302,14.0,0.0,48,0.00,,,0.00,WeatherTracker,2013-03-26 16:29:00,
2013-03-26 12:34:00,59.7,39.4,30.20,North,5,6.0,0.0,47,0.00,,,0.00,WeatherTracker,2013-03-26 16:34:00,
2013-03-26 12:39:00,59.8,38.4,30.21,WNW,289,14.0,0.0,45,0.00,,,0.00,WeatherTracker,2013-03-26 16:39:00,
2013-03-26 12:44:00,60.0,40.3,30.20,NNW,333,12.0,0.0,48,0.00,,,0.00,WeatherTracker,2013-03-26 16:44:00,
2013-03-26 12:49:00,60.4,40.6,30.21,WNW,291,13.0,0.0,48,0.00,,,0.00,WeatherTracker,2013-03-26 16:49:00,
2013-03-26 12:54:00,60.0,38.6,30.21,WNW,292,19.0,0.0,45,0.00,,,0.00,WeatherTracker,2013-03-26 16:54:00,
2013-03-26 12:59:00,59.3,38.5,30.21,NW,321,6.0,0.0,46,0.00,,,0.00,WeatherTracker,2013-03-26 16:59:00,
2013-03-26 13:04:00,59.2,39.5,30.21,NNW,333,12.0,0.0,48,0.00,,,0.00,WeatherTracker,2013-03-26 17:04:00,
2013-03-26 13:09:00,59.6,38.8,30.21,WNW,293,16.0,0.0,46,0.00,,,0.00,WeatherTracker,2013-03-26 17:09:00,
2013-03-26 13:14:00,59.1,38.3,30.20,WNW,288,11.0,0.0,46,0.00,,,0.00,WeatherTracker,2013-03-26 17:14:00,
2013-03-26 13:19:00,59.0,37.7,30.21,NW,317,9.0,0.0,45,0.00,,,0.00,WeatherTracker,2013-03-26 17:19:00,
2013-03-26 13:24:00,59.1,38.3,30.21,NW,311,13.0,0.0,46,0.00,,,0.00,WeatherTracker,2013-03-26 17:24:00,
2013-03-26 13:29:00,59.3,38.5,30.20,NW,305,9.0,0.0,46,0.00,,,0.00,WeatherTracker,2013-03-26 17:29:00,
2013-03-26 13:34:00,59.2,38.4,30.20,North,360,15.0,0.0,46,0.00,,,0.00,WeatherTracker,2013-03-26 17:34:00,
2013-03-26 13:39:00,59.2,38.4,30.20,WNW,297,15.0,0.0,46,0.00,,,0.00,WeatherTracker,2013-03-26 17:39:00,
2013-03-26 13:44:00,59.5,39.8,30.21,NW,320,15.0,0.0,48,0.00,,,0.00,WeatherTracker,2013-03-26 17:44:00,
2013-03-26 13:49:00,59.1,37.8,30.20,NNW,342,14.0,0.0,45,0.00,,,0.00,WeatherTracker,2013-03-26 17:49:00,
2013-03-26 13:54:00,59.0,39.3,30.20,West,281,20.0,0.0,48,0.00,,,0.00,WeatherTracker,2013-03-26 17:54:00,
2013-03-26 13:59:00,58.7,39.6,30.20,NW,321,12.0,0.0,49,0.00,,,0.00,WeatherTracker,2013-03-26 17:59:00,
2013-03-26 14:04:00,58.9,40.3,30.20,WNW,290,11.0,0.0,50,0.00,,,0.00,WeatherTracker,2013-03-26 18:04:00,
2013-03-26 14:09:00,58.6,39.5,30.20,NNW,346,7.0,0.0,49,0.00,,,0.00,WeatherTracker,2013-03-26 18:09:00,
2013-03-26 14:15:00,58.6,40.0,30.20,NW,314,12.0,0.0,50,0.00,,,0.00,WeatherTracker,2013-03-26 18:15:00,
2013-03-26 14:20:00,58.8,40.2,30.20,NNW,339,15.0,0.0,50,0.00,,,0.00,WeatherTracker,2013-03-26 18:20:00,
2013-03-26 14:25:00,58.4,40.3,30.20,NW,317,11.0,0.0,51,0.00,,,0.00,WeatherTracker,2013-03-26 18:25:00,
2013-03-26 14:30:00,58.6,40.0,30.20,West,275,9.0,0.0,50,0.00,,,0.00,WeatherTracker,2013-03-26 18:30:00,
2013-03-26 14:35:00,58.4,38.8,30.20,NW,304,10.0,0.0,48,0.00,,,0.00,WeatherTracker,2013-03-26 18:35:00,
2013-03-26 14:40:00,58.4,40.8,30.20,NNW,348,13.0,0.0,52,0.00,,,0.00,WeatherTracker,2013-03-26 18:40:00,
2013-03-26 14:45:00,58.2,40.2,30.20,NW,316,15.0,0.0,51,0.00,,,0.00,WeatherTracker,2013-03-26 18:45:00,
2013-03-26 14:50:00,58.0,41.0,30.20,NNW,337,15.0,0.0,53,0.00,,,0.00,WeatherTracker,2013-03-26 18:50:00,
2013-03-26 14:55:00,57.8,39.3,30.21,WNW,302,13.0,0.0,50,0.00,,,0.00,WeatherTracker,2013-03-26 18:55:00,
2013-03-26 15:00:00,58.0,39.5,30.21,NW,326,12.0,0.0,50,0.00,,,0.00,WeatherTracker,2013-03-26 19:00:00,
2013-03-26 15:05:00,58.0,40.0,30.20,NW,311,10.0,0.0,51,0.00,,,0.00,WeatherTracker,2013-03-26 19:05:00,
2013-03-26 15:10:00,58.2,39.6,30.20,NNW,346,18.0,0.0,50,0.00,,,0.00,WeatherTracker,2013-03-26 19:10:00,
2013-03-26 15:15:00,57.8,39.3,30.20,NW,304,13.0,0.0,50,0.00,,,0.00,WeatherTracker,2013-03-26 19:15:00,
2013-03-26 15:20:00,57.8,39.8,30.20,NNE,20,13.0,0.0,51,0.00,,,0.00,WeatherTracker,2013-03-26 19:20:00,
2013-03-26 17:13:00,56.4,39.0,30.18,NW,324,7.0,0.0,52,0.00,,,0.00,WeatherTracker,2013-03-26 21:13:00,
2013-03-26 17:18:00,56.2,38.8,30.18,NW,325,10.0,0.0,52,0.00,,,0.00,WeatherTracker,2013-03-26 21:18:00,
2013-03-26 17:23:00,56.1,39.7,30.17,WNW,290,5.0,0.0,54,0.00,,,0.00,WeatherTracker,2013-03-26 21:23:00,
2013-03-26 17:28:00,56.7,39.8,30.18,West,281,5.0,0.0,53,0.00,,,0.00,WeatherTracker,2013-03-26 21:28:00,
2013-03-26 17:33:00,57.0,39.5,30.18,North,355,10.0,0.0,52,0.00,,,0.00,WeatherTracker,2013-03-26 21:33:00,
2013-03-26 17:38:00,56.4,38.0,30.17,West,273,7.0,0.0,50,0.00,,,0.00,WeatherTracker,2013-03-26 21:38:00,
2013-03-26 17:43:00,55.9,38.5,30.18,NW,306,9.0,0.0,52,0.00,,,0.00,WeatherTracker,2013-03-26 21:43:00,
2013-03-26 17:48:00,55.8,38.4,30.18,WNW,294,6.0,0.0,52,0.00,,,0.00,WeatherTracker,2013-03-26 21:48:00,
2013-03-26 17:53:00,55.9,39.0,30.18,WNW,302,7.0,0.0,53,0.00,,,0.00,WeatherTracker,2013-03-26 21:53:00,
2013-03-26 17:58:00,55.7,38.8,30.18,WNW,295,10.0,0.0,53,0.00,,,0.00,WeatherTracker,2013-03-26 21:58:00,
2013-03-26 18:03:00,55.7,38.8,30.18,NW,323,9.0,0.0,53,0.00,,,0.00,WeatherTracker,2013-03-26 22:03:00,
2013-03-26 18:08:00,55.7,38.8,30.18,WNW,302,19.0,0.0,53,0.00,,,0.00,WeatherTracker,2013-03-26 22:08:00,
2013-03-26 18:13:00,55.4,39.0,30.18,NNW,346,10.0,0.0,54,0.00,,,0.00,WeatherTracker,2013-03-26 22:13:00,
2013-03-26 18:18:00,55.2,38.8,30.18,NW,322,14.0,0.0,54,0.00,,,0.00,WeatherTracker,2013-03-26 22:18:00,
2013-03-26 18:23:00,55.1,38.8,30.18,WNW,290,8.0,0.0,54,0.00,,,0.00,WeatherTracker,2013-03-26 22:23:00,
2013-03-26 18:28:00,55.1,39.2,30.18,NW,306,14.0,0.0,55,0.00,,,0.00,WeatherTracker,2013-03-26 22:28:00,
2013-03-26 18:33:00,55.1,38.8,30.18,NNE,15,5.0,0.0,54,0.00,,,0.00,WeatherTracker,2013-03-26 22:33:00,
2013-03-26 18:38:00,55.0,39.1,30.18,WNW,284,10.0,0.0,55,0.00,,,0.00,WeatherTracker,2013-03-26 22:38:00,
2013-03-26 18:43:00,54.8,38.9,30.18,WNW,298,14.0,0.0,55,0.00,,,0.00,WeatherTracker,2013-03-26 22:43:00,
2013-03-26 18:48:00,54.7,39.8,30.18,WNW,284,8.0,0.0,57,0.00,,,0.00,WeatherTracker,2013-03-26 22:48:00,
2013-03-26 18:53:00,54.6,39.2,30.18,WNW,297,10.0,0.0,56,0.00,,,0.00,WeatherTracker,2013-03-26 22:53:00,
2013-03-26 18:58:00,54.3,38.9,30.18,West,281,8.0,0.0,56,0.00,,,0.00,WeatherTracker,2013-03-26 22:58:00,
2013-03-26 19:03:00,54.1,39.2,30.19,North,5,7.0,0.0,57,0.00,,,0.00,WeatherTracker,2013-03-26 23:03:00,
2013-03-26 19:08:00,54.0,39.6,30.19,NW,316,12.0,0.0,58,0.00,,,0.00,WeatherTracker,2013-03-26 23:08:00,
2013-03-26 19:13:00,53.8,39.4,30.19,WNW,284,6.0,0.0,58,0.00,,,0.00,WeatherTracker,2013-03-26 23:13:00,
2013-03-26 19:18:00,53.6,38.3,30.19,WNW,285,8.0,0.0,56,0.00,,,0.00,WeatherTracker,2013-03-26 23:18:00,
2013-03-26 19:23:00,53.4,38.6,30.19,NNW,341,8.0,0.0,57,0.00,,,0.00,WeatherTracker,2013-03-26 23:23:00,
2013-03-26 19:29:00,53.3,38.9,30.19,NW,324,4.0,0.0,58,0.00,,,0.00,WeatherTracker,2013-03-26 23:29:00,
2013-03-26 19:34:00,53.2,38.4,30.19,NW,304,10.0,0.0,57,0.00,,,0.00,WeatherTracker,2013-03-26 23:34:00,
2013-03-26 19:39:00,53.0,38.2,30.19,North,5,10.0,0.0,57,0.00,,,0.00,WeatherTracker,2013-03-26 23:39:00,
2013-03-26 19:44:00,52.9,38.1,30.19,West,279,7.0,0.0,57,0.00,,,0.00,WeatherTracker,2013-03-26 23:44:00,
2013-03-26 19:49:00,52.7,38.8,30.19,NNW,342,7.0,0.0,59,0.00,,,0.00,WeatherTracker,2013-03-26 23:49:00,
2013-03-26 19:54:00,52.6,38.7,30.19,NW,317,9.0,0.0,59,0.00,,,0.00,WeatherTracker,2013-03-26 23:54:00,
2013-03-26 19:59:00,52.5,38.2,30.20,West,271,8.0,0.0,58,0.00,,,0.00,WeatherTracker,2013-03-26 23:59:00,
2013-03-26 20:04:00,52.4,38.1,30.20,West,271,12.0,0.0,58,0.00,,,0.00,WeatherTracker,2013-03-27 00:04:00,
2013-03-26 20:09:00,52.3,38.0,30.20,West,281,5.0,0.0,58,0.00,,,0.00,WeatherTracker,2013-03-27 00:09:00,
2013-03-26 20:14:00,52.2,38.3,30.20,NW,305,3.0,0.0,59,0.00,,,0.00,WeatherTracker,2013-03-27 00:14:00,
2013-03-26 20:19:00,52.1,38.2,30.20,WNW,286,7.0,0.0,59,0.00,,,0.00,WeatherTracker,2013-03-27 00:19:00,
2013-03-26 20:24:00,52.0,38.1,30.20,WNW,299,7.0,0.0,59,0.00,,,0.00,WeatherTracker,2013-03-27 00:24:00,
2013-03-26 20:29:00,52.0,38.1,30.20,WNW,300,4.0,0.0,59,0.00,,,0.00,WeatherTracker,2013-03-27 00:29:00,
2013-03-26 20:34:00,51.9,38.0,30.21,NW,324,5.0,0.0,59,0.00,,,0.00,WeatherTracker,2013-03-27 00:34:00,
2013-03-26 20:39:00,51.9,38.0,30.21,WNW,291,6.0,0.0,59,0.00,,,0.00,WeatherTracker,2013-03-27 00:39:00,
2013-03-26 20:44:00,51.9,38.5,30.21,NW,323,0.0,0.0,60,0.00,,,0.00,WeatherTracker,2013-03-27 00:44:00,
2013-03-26 20:49:00,51.9,38.9,30.21,NNW,344,7.0,0.0,61,0.00,,,0.00,WeatherTracker,2013-03-27 00:49:00,
2013-03-26 20:54:00,51.9,38.9,30.22,NW,324,6.0,0.0,61,0.00,,,0.00,WeatherTracker,2013-03-27 00:54:00,
2013-03-26 21:00:00,51.8,38.8,30.22,North,360,5.0,0.0,61,0.00,,,0.00,WeatherTracker,2013-03-27 01:00:00,
2013-03-26 21:05:00,51.8,38.8,30.22,NW,311,6.0,0.0,61,0.00,,,0.00,WeatherTracker,2013-03-27 01:05:00,
2013-03-26 21:10:00,51.7,38.7,30.22,WNW,302,2.0,0.0,61,0.00,,,0.00,WeatherTracker,2013-03-27 01:10:00,
2013-03-26 21:15:00,51.7,39.1,30.22,WNW,301,1.0,0.0,62,0.00,,,0.00,WeatherTracker,2013-03-27 01:15:00,
2013-03-26 21:20:00,51.6,39.4,30.22,WNW,301,4.0,0.0,63,0.00,,,0.00,WeatherTracker,2013-03-27 01:20:00,
2013-03-26 21:25:00,51.5,39.3,30.22,WNW,290,6.0,0.0,63,0.00,,,0.00,WeatherTracker,2013-03-27 01:25:00,
2013-03-26 21:30:00,51.5,39.7,30.22,WNW,288,4.0,0.0,64,0.00,,,0.00,WeatherTracker,2013-03-27 01:30:00,
2013-03-26 21:35:00,51.4,39.6,30.23,WNW,290,6.0,0.0,64,0.00,,,0.00,WeatherTracker,2013-03-27 01:35:00,
2013-03-26 21:40:00,51.3,39.5,30.23,NNW,348,2.0,0.0,64,0.00,,,0.00,WeatherTracker,2013-03-27 01:40:00,
2013-03-26 21:45:00,51.3,39.1,30.23,WNW,288,4.0,0.0,63,0.00,,,0.00,WeatherTracker,2013-03-27 01:45:00,
2013-03-26 21:50:00,51.3,39.1,30.23,NW,309,5.0,0.0,63,0.00,,,0.00,WeatherTracker,2013-03-27 01:50:00,
2013-03-26 21:55:00,51.3,39.1,30.23,NNW,331,0.0,0.0,63,0.00,,,0.00,WeatherTracker,2013-03-27 01:55:00,
2013-03-26 22:00:00,51.3,39.5,30.23,WNW,288,7.0,0.0,64,0.00,,,0.00,WeatherTracker,2013-03-27 02:00:00,
2013-03-26 22:05:00,51.2,39.0,30.24,NNW,344,7.0,0.0,63,0.00,,,0.00,WeatherTracker,2013-03-27 02:05:00,
2013-03-26 22:10:00,51.3,39.1,30.24,WNW,287,6.0,0.0,63,0.00,,,0.00,WeatherTracker,2013-03-27 02:10:00,
2013-03-26 22:15:00,51.2,39.0,30.23,WNW,302,5.0,0.0,63,0.00,,,0.00,WeatherTracker,2013-03-27 02:15:00,
2013-03-26 22:20:00,51.2,39.4,30.24,NW,325,0.0,0.0,64,0.00,,,0.00,WeatherTracker,2013-03-27 02:20:00,
2013-03-26 22:25:00,51.1,39.7,30.24,NW,310,4.0,0.0,65,0.00,,,0.00,WeatherTracker,2013-03-27 02:25:00,
2013-03-26 22:30:00,51.0,39.7,30.24,NNW,348,4.0,0.0,65,0.00,,,0.00,WeatherTracker,2013-03-27 02:30:00,
2013-03-26 22:35:00,51.0,39.7,30.24,North,355,6.0,0.0,65,0.00,,,0.00,WeatherTracker,2013-03-27 02:35:00,
2013-03-26 22:40:00,50.9,39.6,30.24,North,5,6.0,0.0,65,0.00,,,0.00,WeatherTracker,2013-03-27 02:40:00,
2013-03-26 22:45:00,50.8,39.5,30.25,NW,308,6.0,0.0,65,0.00,,,0.00,WeatherTracker,2013-03-27 02:45:00,
2013-03-26 22:50:00,50.6,39.3,30.25,NW,316,5.0,0.0,65,0.00,,,0.00,WeatherTracker,2013-03-27 02:50:00,
2013-03-26 22:55:00,50.5,39.2,30.25,NNW,338,4.0,0.0,65,0.00,,,0.00,WeatherTracker,2013-03-27 02:55:00,
2013-03-26 23:00:00,50.4,38.7,30.25,NE,53,6.0,0.0,64,0.00,,,0.00,WeatherTracker,2013-03-27 03:00:00,
2013-03-26 23:05:00,50.4,38.3,30.25,NNW,341,4.0,0.0,63,0.00,,,0.00,WeatherTracker,2013-03-27 03:05:00,
2013-03-26 23:11:00,50.4,38.3,30.25,NW,312,4.0,0.0,63,0.00,,,0.00,WeatherTracker,2013-03-27 03:11:00,
2013-03-26 23:16:00,50.4,37.9,30.25,NNE,13,4.0,0.0,62,0.00,,,0.00,WeatherTracker,2013-03-27 03:16:00,
2013-03-26 23:21:00,50.4,38.3,30.25,NNW,338,5.0,0.0,63,0.00,,,0.00,WeatherTracker,2013-03-27 03:21:00,